Regional Weather Roundup
Issued by NWS

Home | Current Version | Previous Version | Graphics & Text | Print | Product List | Glossary Off
Versions: 1 2 3 4 5 6 7 8 9 10 11 12 13 14 15 16 17 18 19 20 21 22 23 24 25 26 27 28 29 30 31 32 33 34 35 36 37 38 39 40 41 42 43 44 45 46 47 48 49 50

000
ASUS43 KMKX 290021
RWRWI

WISCONSIN REGIONAL WEATHER ROUNDUP
NATIONAL WEATHER SERVICE MILWAUKEE/SULLIVAN WI
700 PM CDT THU AUG 28 2014

NOTE: "FAIR" INDICATES FEW OR NO CLOUDS BELOW 12,000 FEET WITH NO
SIGNIFICANT WEATHER AND/OR OBSTRUCTIONS TO VISIBILITY.

WIZ001-002-006>008-014>016-023>028-290100-
NORTHWEST WISCONSIN

CITY           SKY/WX    TMP DP  RH WIND       PRES   REMARKS
SUPERIOR ARPT  CLOUDY    62  57  83 NE7       29.99F
6HR MIN TEMP:  62; 6HR MAX TEMP:  70;

ASHLAND        MOCLDY    65  55  70 NE5       30.02F
6HR MIN TEMP:  65; 6HR MAX TEMP:  75;

HAYWARD        CLOUDY    68  60  75 SE5       30.01F
6HR MIN TEMP:  68; 6HR MAX TEMP:  72;

SIREN          CLOUDY    68  61  77 SE5       29.99F
6HR MIN TEMP:  68; 6HR MAX TEMP:  74;

RICE LAKE      DRIZZLE   66  63  91 SE9       30.02F
6HR MIN TEMP:  66; 6HR MAX TEMP:  72;

LADYSMITH      CLOUDY    67  62  83 SE6       30.05S
6HR MIN TEMP:  67; 6HR MAX TEMP:  73;

EAU CLAIRE     CLOUDY    67  64  90 E6        30.00S
6HR MIN TEMP:  67; 6HR MAX TEMP:  73; 6HR PCP:  0.04;

MENOMONIE      DRIZZLE   66  64  91 E6        30.00F
6HR MIN TEMP:  66; 6HR MAX TEMP:  73; 6HR PCP:  0.03;

NEW RICHMOND   LGT RAIN  66  64  92 SE6       29.99S
6HR MIN TEMP:  66; 6HR MAX TEMP:  71;

OSCEOLA        LGT RAIN  67  64  89 E10       30.00F
6HR MIN TEMP:  67; 6HR MAX TEMP:  73;

$$

WIZ003>005-009-010-017-018-290100-
NORTH CENTRAL WISCONSIN

CITY           SKY/WX    TMP DP  RH WIND       PRES   REMARKS
WOODRUFF       CLOUDY    67  58  71 S6        30.05F
6HR MIN TEMP:  67; 6HR MAX TEMP:  72;

RHINELANDER    CLOUDY    65  58  78 S3        30.07F
6HR MIN TEMP:  65; 6HR MAX TEMP:  71;

EAGLE RIVER      N/A     65  56  72 CALM      30.06S
LAND O LAKES   CLOUDY    66  56  70 CALM      30.06F
6HR MIN TEMP:  66; 6HR MAX TEMP:  73;

PHILLIPS       CLOUDY    66  60  78 S5        30.04S
6HR MIN TEMP:  66; 6HR MAX TEMP:  72;

TOMAHAWK       CLOUDY    65  59  82 CALM      30.06S
6HR MIN TEMP:  65; 6HR MAX TEMP:  71;

MEDFORD        LGT RAIN  63  62  95 E5        30.05S
6HR MIN TEMP:  63; 6HR MAX TEMP:  68; 6HR PCP:  0.01;

MERRILL        DRIZZLE   65  62  91 SE6       30.06S
6HR MIN TEMP:  65; 6HR MAX TEMP:  70;

$$

WIZ029-030-035-036-043>047-290100-
CENTRAL WISCONSIN

CITY           SKY/WX    TMP DP  RH WIND       PRES   REMARKS
WAUSAU         LGT RAIN  65  62  90 SE9       30.04F
6HR MIN TEMP:  64; 6HR MAX TEMP:  70; 6HR PCP:  0.02;

MOSINEE        LGT RAIN  64  63  94 E6        30.06F
MARSHFIELD     CLOUDY    66  64  93 E8        30.04S
6HR MIN TEMP:  66; 6HR MAX TEMP:  72; 6HR PCP: TRACE;

STEVENS POINT  LGT RAIN  64  60  90 SE7       30.06S
6HR MIN TEMP:  64; 6HR MAX TEMP:  70; 6HR PCP:  0.01;

WAUPACA        LGT RAIN  67  61  81 SE8       30.07S
6HR MIN TEMP:  67; 6HR MAX TEMP:  74;

WAUTOMA        HVY RAIN  66  60  81 SE8       30.06S
6HR MIN TEMP:  66; 6HR MAX TEMP:  75; 6HR PCP: TRACE;

WISC RAPIDS    LGT RAIN  67  63  87 E8        30.05F
6HR MIN TEMP:  67; 6HR MAX TEMP:  74; 6HR PCP:  0.03;

CAMP DOUGLAS   CLOUDY    67  67 100 E7        30.02F
6HR MIN TEMP:  67; 6HR MAX TEMP:  73; 6HR PCP:  0.03;

$$

WIZ011>013-019>022-031-037>040-048>050-290100-
NORTHEAST WISCONSIN

CITY           SKY/WX    TMP DP  RH WIND       PRES   REMARKS
ANTIGO         LGT RAIN  63  60  92 S8        30.08S
6HR MIN TEMP:  63; 6HR MAX TEMP:  70;

STURGEON BAY   CLOUDY    63  54  72 SE6       30.10S
6HR MIN TEMP:  63; 6HR MAX TEMP:  66;

GREEN BAY      CLOUDY    64  55  72 SE8       30.08S
6HR MIN TEMP:  64; 6HR MAX TEMP:  71;

MANITOWOC      CLOUDY    65  57  75 CALM      30.10R
6HR MIN TEMP:  65; 6HR MAX TEMP:  67;

APPLETON       LGT RAIN  64  54  68 SE10      30.09S
CLINTONVILLE   RAIN      64  57  77 SE7       30.07S
OSHKOSH        CLOUDY    65  54  67 SE8       30.08S
6HR MIN TEMP:  65; 6HR MAX TEMP:  73; 6HR PCP: TRACE;

$$

WIZ032>034-041-042-053>061-290100-
SOUTHWEST WISCONSIN

CITY           SKY/WX    TMP DP  RH WIND       PRES   REMARKS
LA CROSSE      RAIN      68  65  90 E7        29.97F FOG
6HR MIN TEMP:  68; 6HR MAX TEMP:  73; 6HR PCP:  0.29;

SPARTA         LGT RAIN  66  64  94 E3        30.02S
6HR MIN TEMP:  66; 6HR MAX TEMP:  73; 6HR PCP:  0.07;

VIROQUA        CLOUDY    65  65 100 E7        30.00F
6HR MIN TEMP:  65; 6HR MAX TEMP:  70; 6HR PCP:  0.14;

BOSCOBEL       LGT RAIN  72  62  71 VRB6      29.99F
6HR MIN TEMP:  71; 6HR MAX TEMP:  75; 6HR PCP:  0.02;

PRAIRIE DU CHI CLOUDY    72  61  70 SE6       29.97F
6HR MIN TEMP:  69; 6HR MAX TEMP:  73; 6HR PCP:  0.01;

PLATTEVILLE    CLOUDY    71  63  77 SE12      30.01S
6HR MIN TEMP:  70; 6HR MAX TEMP:  73;

$$

WIZ056-057-062-063-064-067-068-290100-
SOUTH CENTRAL WISCONSIN

CITY           SKY/WX    TMP DP  RH WIND       PRES   REMARKS
BARABOO/DELLS  DRIZZLE   67  59  77 E8        30.04S
6HR MIN TEMP:  67; 6HR MAX TEMP:  75;

LONE ROCK      CLOUDY    75  63  66 E8        30.01F
6HR MIN TEMP:  75; 6HR MAX TEMP:  77; 6HR PCP: TRACE;

WATERTOWN      CLOUDY    65  56  71 CALM      30.06S
6HR MIN TEMP:  65; 6HR MAX TEMP:  74;

MADISON        LGT RAIN  69  58  67 E9        30.04F
6HR MIN TEMP:  69; 6HR MAX TEMP:  75; 6HR PCP: TRACE;

MIDDLETON      FAIR      70  55  58 SE15      30.04F
6HR MIN TEMP:  70; 6HR MAX TEMP:  76;

MONROE         CLOUDY    68  61  77 E7        30.03F
JANESVILLE     CLEAR     70  55  60 E7        30.04F
$$

WIZ051-052-058>065-066-070>072-290100-
SOUTHEAST WISCONSIN

CITY           SKY/WX    TMP DP  RH WIND       PRES   REMARKS
MILWAUKEE      CLOUDY    67  56  67 E7        30.07F
6HR MIN TEMP:  66; 6HR MAX TEMP:  71;

WAUKESHA       CLOUDY    64  52  63 E8        30.09F
MILWAUKEE/TIMM CLEAR     66  54  63 E7        30.08F
RACINE         CLOUDY    68  57  68 E10       30.08F
6HR MIN TEMP:  68; 6HR MAX TEMP:  72;

BURLINGTON     CLOUDY    64  57  79 E7        30.07S
6HR MIN TEMP:  64; 6HR MAX TEMP:  72;

KENOSHA        CLOUDY    67  60  78 E12       30.06F
6HR MIN TEMP:  67; 6HR MAX TEMP:  73;

FOND DU LAC    CLOUDY    65  53  65 SE6       30.08F
6HR MIN TEMP:  64; 6HR MAX TEMP:  72; 6HR PCP: TRACE;

SHEBOYGAN      CLOUDY    65  54  67 S3        30.09S
6HR MIN TEMP:  65; 6HR MAX TEMP:  70;

WEST BEND      CLOUDY    63  52  67 E5        30.08F
JUNEAU         CLOUDY    64  54  68 E8        30.08S
6HR MIN TEMP:  64; 6HR MAX TEMP:  72;

$$

LSZ147-162-290100-
LAKE SUPERIOR

STATION/POSITION TIME  TEMP    WIND        PRES    WAVE
                       AIR SEA DIR/SP/G            HT/PER
                 (UTC) (F)     (DEG/KT/KT) (MB)    (FT/S)
W MID LAKE BUOY  2350   60 59   80/  8/  8 1016.4F
DEVILS ISLAND    0000   62     100/ 10/ 11 1016.2F
PORT WING        2300   65      30/  9/ 11 1015.9F
SAXON HARBOR     2300   66      50/  4/  9 1016.3F
$$

LMZ867-665-643>646-290100-
LAKE MICHIGAN

STATION/POSITION TIME  TEMP    WIND        PRES    WAVE
                       AIR SEA DIR/SP/G            HT/PER
                 (UTC) (F)     (DEG/KT/KT) (MB)    (FT/S)
N MID LAKE BUOY  2350   63 66  110/  6/  8 1019.6F   0
NORTHPORT PIER   2300   65     150/  7/ 11 1019.3F
SISTER BAY       2211   66     180/ 10/ 13   N/A
ALGOMA LAKESHORE 2308          190/  8/ 10   N/A
KEWAUNEE LAKESHO 2300   65     160/  7/  8 1018.2F
SHEBOYGAN LAKESH 0000   66 70  160/  4/  5 1019.2R
ATWATER BUOY     0000   68     120/ 10/ 10 1019.4F
MILWAUKEE LAKESH 0000   67     100/  8/  9   N/A
S MID LAKE BUOY  2350   69 69   70/ 10/ 12 1018.3F
KENOSHA   LAKESH 0000   69     100/ 10/ 11 1017.6F
$$

TC  - TEMPERATURE IN CELSIUS
VSB - VISIBILITY IN STATUTE MILES
WCI - WIND CHILL INDEX
HX  - HEAT INDEX




USA.gov is the U.S. government's official web portal to all federal, state and local government web resources and services.